Weather Roundup
Issued by NWS

Home | Current Version | Previous Version | Graphics & Text | Print | Product List | Glossary Off
Versions: 1 2 3 4 5 6 7 8 9 10 11 12 13 14 15 16 17 18 19 20 21 22 23 24 25 26 27 28 29 30 31 32 33 34 35 36 37 38 39 40 41 42 43 44 45 46 47 48 49 50

000
NZUS93 KARX 050410
HRRWXR

CURRENT HOURLY OBSERVATIONS ACROSS
MUCH OF THE UPPER MISSISSIPPI VALLEY
NATIONAL WEATHER SERVICE LA CROSSE WI
1100 PM CDT MON MAY 04 2015


...SOUTHEAST MINNESOTA...


CITY           SKY/WX    TMP DP  RH WIND       PRES   REMARKS
ROCHESTER      MOCLDY    55  37  50 NE6       30.18F
ROCHESTER/MAYO FAIR      59  36  41 NE3       30.17F
WINONA         MOCLDY    54  45  71 NW3       30.18S
AUSTIN         MOCLDY    54  41  62 NE5       30.15F
ALBERT LEA     CLOUDY    55  39  54 NE8       30.15F
DODGE CENTER   MOCLDY    55  36  47 NE6       30.17F
PRESTON        MOCLDY    55  38  51 NE5       30.17S
OWATONNA       MOCLDY    54  34  47 NE5       30.17F
FARIBAULT      MOCLDY    46  41  81 CALM      30.18S
$$

...ELSEWHERE IN MINNESOTA...


CITY           SKY/WX    TMP DP  RH WIND       PRES   REMARKS
MINNEAPOLIS    MOCLDY    59  31  34 NE7       30.19R
INTNL FALLS    CLEAR     36  30  79 CALM      30.21S
DULUTH         CLEAR     47  23  38 CALM      30.22S
RED WING       PTCLDY    48  41  76 CALM      30.17F
REDWOOD FALLS  MOCLDY    62  26  25 E7        30.16F
MANKATO        MOCLDY    59  36  41 E7        30.16F
WORTHINGTON    PTCLDY    50  27  40 E6        30.15F
FAIRMONT       PTCLDY    57  28  33 NE9       30.14F
$$

...SOUTHWEST WISCONSIN...


CITY           SKY/WX    TMP DP  RH WIND       PRES   REMARKS
LA CROSSE      MOCLDY    58  46  64 N3        30.16R
PRAIRIE DU CHI CLOUDY    65  51  62 CALM      30.13S
BOSCOBEL       CLOUDY    63  52  67 NE3       30.15R
LONE ROCK      CLOUDY    63  44  50 E15       30.16R
PLATTEVILLE    CLOUDY    63  56  80 E12       30.16R
FORT MC COY    MOCLDY    49  40  71 CALM      30.18S
CAMP DOUGLAS   MOCLDY    48  46  93 CALM      30.17R
VIROQUA        FAIR      57  40  54 NE8       30.17R
WIS DELLS      MOCLDY    59  31  34 CALM      30.18S
$$

...ELSEWHERE IN WISCONSIN...


CITY           SKY/WX    TMP DP  RH WIND       PRES   REMARKS
MILWAUKEE      PTCLDY    51  32  48 NE5       30.21R
MADISON        MOCLDY    59  36  42 SE6       30.18S
GREEN BAY      PTCLDY    54  36  50 E10       30.24R
EAU CLAIRE     PTCLDY    49  37  63 CALM      30.18S
BLACK RVR FLS  FAIR      46  39  74 CALM      30.17S
MEDFORD        PTCLDY    51  29  42 NE8       30.21S
WAUSAU         CLEAR     53  41  63 E8        30.21R
WIS RAPIDS     FAIR      55  40  56 E9        30.21R
MARSHFIELD     PTCLDY    55  39  54 E10       30.20R
RICE LAKE      CLEAR     51  31  45 CALM      30.23R
$$

...NORTHEAST IOWA...


CITY           SKY/WX    TMP DP  RH WIND       PRES   REMARKS
DECORAH        CLOUDY    61  39  44 NE6       30.14S
MASON CITY     CLOUDY    55  45  68 NE9       30.14F
CHARLES CITY   CLOUDY    61  43  51 NE9       30.14F
OELWEIN        CLOUDY    59  55  88 E5        30.15S
$$

...ELSEWHERE IN IOWA...


CITY           SKY/WX    TMP DP  RH WIND       PRES   REMARKS
DES MOINES     CLOUDY    64  60  87 E9        30.07F
IOWA CITY      TSTM      64  62  93 NE15      30.10S
FORT DODGE     CLOUDY    57  48  72 NE7       30.11F
$$

...NORTHERN ILLINOIS...


CITY           SKY/WX    TMP DP  RH WIND       PRES   REMARKS
CHICAGO-OHARE  CLOUDY    56  37  49 NE7       30.17F
CHICAGO-MIDWAY MOCLDY    59  39  47 NE8       30.17F
MOLINE         RAIN      65  62  90 E8        30.10S FOG
ROCKFORD       CLOUDY    60  36  40 E10       30.17R
PEORIA         CLOUDY    68  64  87 E7        30.10F FOG
$$

NOTE: "FAIR" INDICATES FEW OR NO CLOUDS BELOW 12,000 FEET WITH NO
SIGNIFICANT WEATHER AND/OR OBSTRUCTIONS TO VISIBILITY. WIND
SPEEDS ARE IN MILES-PER-HOUR.



USA.gov is the U.S. government's official web portal to all federal, state and local government web resources and services.